{"data":{"norad_id":55436,"intl_designator":"2023-014AX","name":"STARLINK-5640","alt_names":[],"object_type":"PAYLOAD","status":"ACTIVE","operator":null,"country":"US","launch_date":"2023-01-31","launch_site_code":"AFWTR","launch_vehicle":null,"mission":null,"orbit_class":"UNKNOWN","rcs_meters":null,"size_class":null,"mass_kg":null,"dimensions":null,"purposes":["comms"],"wikipedia_slug":null,"has_3d_model":false,"image_url":null,"decayed_at":null,"tle_current":{"epoch":"2026-05-24T18:29:00.453696Z","epoch_age_seconds":109111,"freshness":"FRESH","line1":"1 55436U 23014AX  26144.77014414  .00001500  00000+0  13342-3 0  9999","line2":"2 55436  69.9990 272.6719 0003145 270.2095  89.8704 14.98344474182464","mean_motion":14.98344474,"eccentricity":0.0003145,"inclination_deg":69.999,"raan_deg":272.6719,"arg_perigee_deg":270.2095,"mean_anomaly_deg":89.8704,"bstar":0.00013342,"rev_number":18246,"period_min":96.10607073257,"perigee_km":569.82531006629,"apogee_km":574.1969532411,"semimajor_km":6950.1481316537,"source":"CELESTRAK","updated_at":"2026-05-25T13:38:17.801308Z"}}}